Total_Precipitation_Accumulation
0.42 0.36 0.32 0.35 0.33 0.29 0.26 0.29 0.36 0.40 0.41 0.48 0.59 0.69 0.79 0.97 1.18 1.23 1.30 1.45 1.45 1.46 1.58 1.70 1.74 1.67 1.59 1.65 1.82 2.18 2.07 1.71 1.55 1.60 1.47 1.31 1.27 1.36 1.36 1.49 1.57 1.47 1.39
0.34 0.28 0.27 0.28 0.26 0.24 0.22 0.25 0.34 0.44 0.49 0.53 0.66 0.81 1.03 1.15 1.31 1.47 1.46 1.49 1.53 1.57 1.63 1.84 1.96 1.90 1.88 1.97 2.01 2.26 2.41 2.13 1.94 1.96 2.13 1.89 1.66 1.32 1.10 1.20 1.32 1.37 1.40
0.30 0.22 0.22 0.26 0.23 0.22 0.24 0.27 0.40 0.60 0.79 0.87 1.09 1.36 1.62 1.69 1.63 1.64 1.70 1.68 1.70 1.76 1.72 1.84 2.03 2.02 1.99 2.03 2.22 2.53 2.83 2.73 2.47 2.28 2.44 2.20 1.91 1.74 1.25 1.03 1.09 1.23 1.36
0.37 0.28 0.26 0.28 0.25 0.26 0.34 0.50 0.72 1.01 1.25 1.38 1.56 1.77 1.88 1.92 1.85 1.87 1.86 1.84 1.75 1.67 1.67 1.80 2.00 2.15 2.24 2.31 2.38 2.38 2.73 2.97 2.81 2.65 2.34 2.04 1.89 2.00 1.78 1.32 1.06 1.12 1.20
0.40 0.40 0.39 0.43 0.44 0.53 0.71 1.00 1.25 1.47 1.61 1.66 1.74 1.92 2.07 2.23 2.25 2.15 2.00 1.88 1.84 1.77 1.68 1.73 1.80 1.85 1.94 2.09 2.21 2.28 2.51 2.69 2.83 2.79 2.58 2.31 2.15 1.74 1.73 1.76 1.50 1.22 1.01
0.44 0.52 0.65 0.76 0.86 0.95 1.12 1.33 1.46 1.60 1.60 1.59 1.63 1.75 1.93 2.10 2.14 2.16 2.13 1.99 1.86 1.75 1.65 1.59 1.68 1.70 1.71 1.86 1.98 2.08 2.32 2.50 2.61 2.66 2.56 2.45 2.40 2.14 1.89 1.71 1.68 1.53 1.21
0.52 0.71 0.87 1.00 1.12 1.22 1.31 1.33 1.31 1.36 1.41 1.40 1.42 1.48 1.55 1.59 1.65 1.76 1.69 1.56 1.45 1.39 1.37 1.29 1.34 1.47 1.52 1.71 1.79 1.73 1.79 1.98 2.19 2.36 2.39 2.37 2.28 2.25 2.18 2.02 1.85 1.63 1.29
0.78 0.90 1.00 1.10 1.13 1.26 1.30 1.24 1.21 1.20 1.14 1.10 1.13 1.13 1.17 1.22 1.25 1.26 1.22 1.14 1.10 1.07 1.04 1.03 1.04 1.11 1.18 1.40 1.62 1.60 1.61 1.68 1.78 1.87 2.11 2.22 2.17 2.20 2.02 1.91 1.94 1.74 1.47
1.04 1.21 1.20 1.10 1.03 1.08 1.14 1.11 1.06 1.00 0.93 0.87 0.91 0.92 0.98 1.00 0.97 0.95 0.90 0.89 0.83 0.82 0.80 0.83 0.93 0.99 0.97 1.06 1.21 1.39 1.46 1.52 1.60 1.61 1.77 1.88 1.95 1.92 1.78 1.81 1.89 1.78 1.52
1.11 1.38 1.51 1.38 1.11 0.94 0.97 0.93 0.89 0.91 0.89 0.84 0.87 0.86 0.78 0.71 0.70 0.73 0.67 0.66 0.71 0.74 0.74 0.71 0.73 0.80 0.82 0.91 1.02 1.07 1.18 1.25 1.40 1.57 1.71 1.73 1.77 1.80 1.71 1.70 1.83 1.82 1.60
1.30 1.44 1.48 1.34 1.16 0.89 0.83 0.81 0.78 0.81 0.85 0.79 0.82 0.83 0.72 0.58 0.54 0.52 0.49 0.50 0.53 0.58 0.59 0.61 0.68 0.69 0.72 0.73 0.74 0.79 0.84 0.91 1.01 1.08 1.22 1.43 1.62 1.67 1.67 1.73 1.79 1.84 1.70
0.97 0.98 1.08 1.09 1.02 0.88 0.81 0.86 0.90 0.90 0.82 0.75 0.74 0.74 0.65 0.55 0.56 0.51 0.43 0.46 0.50 0.52 0.53 0.58 0.61 0.61 0.67 0.70 0.69 0.68 0.70 0.80 0.88 0.89 0.90 1.01 1.24 1.41 1.54 1.62 1.64 1.72 1.70
0.71 0.64 0.75 0.89 0.83 0.77 0.80 0.88 1.02 1.02 0.94 0.82 0.73 0.72 0.68 0.64 0.65 0.55 0.47 0.46 0.53 0.63 0.65 0.66 0.68 0.64 0.67 0.67 0.67 0.70 0.72 0.74 0.80 0.83 0.85 0.91 1.01 1.18 1.27 1.38 1.49 1.57 1.68
0.56 0.50 0.49 0.53 0.53 0.54 0.57 0.70 0.96 1.15 1.12 1.01 0.88 0.79 0.73 0.70 0.65 0.55 0.51 0.47 0.49 0.55 0.58 0.67 0.74 0.81 0.86 0.84 0.80 0.79 0.78 0.73 0.74 0.81 0.88 0.90 0.91 1.04 1.26 1.38 1.45 1.49 1.59
0.37 0.32 0.31 0.32 0.34 0.38 0.45 0.55 0.83 1.04 1.06 1.05 0.91 0.77 0.67 0.60 0.56 0.58 0.58 0.51 0.46 0.47 0.48 0.56 0.66 0.76 0.85 0.90 0.90 0.76 0.65 0.65 0.70 0.71 0.72 0.80 0.87 0.90 1.05 1.22 1.45 1.48 1.60
0.30 0.30 0.27 0.25 0.22 0.21 0.28 0.36 0.55 0.73 0.81 0.87 0.82 0.66 0.61 0.55 0.49 0.50 0.56 0.56 0.45 0.43 0.44 0.48 0.46 0.49 0.54 0.71 0.72 0.60 0.50 0.54 0.63 0.70 0.72 0.72 0.73 0.76 0.80 0.84 1.09 1.28 1.41
0.33 0.35 0.33 0.30 0.27 0.24 0.24 0.26 0.32 0.42 0.50 0.55 0.57 0.46 0.44 0.52 0.52 0.52 0.52 0.46 0.38 0.41 0.42 0.36 0.32 0.34 0.39 0.44 0.43 0.49 0.50 0.51 0.55 0.63 0.73 0.77 0.76 0.81 0.90 0.86 0.90 0.99 1.07
0.35 0.33 0.30 0.27 0.25 0.22 0.22 0.23 0.23 0.26 0.29 0.28 0.26 0.22 0.29 0.40 0.42 0.38 0.36 0.32 0.32 0.37 0.44 0.36 0.34 0.38 0.36 0.38 0.42 0.46 0.47 0.60 0.65 0.65 0.65 0.76 0.83 0.89 1.05 1.03 1.09 1.02 0.93
0.16 0.14 0.12 0.11 0.11 0.11 0.12 0.11 0.09 0.10 0.10 0.10 0.10 0.12 0.12 0.14 0.14 0.13 0.16 0.21 0.27 0.32 0.29 0.32 0.46 0.46 0.43 0.51 0.48 0.41 0.47 0.60 0.67 0.62 0.65 0.76 0.86 1.03 1.14 1.16 1.17 1.07 0.97
0.04 0.06 0.08 0.09 0.08 0.08 0.08 0.07 0.07 0.07 0.08 0.08 0.10 0.10 0.10 0.10 0.10 0.10 0.10 0.14 0.18 0.23 0.24 0.28 0.41 0.46 0.50 0.51 0.39 0.37 0.47 0.60 0.68 0.68 0.67 0.89 0.90 0.98 1.03 1.08 1.20 1.22 1.09
0.04 0.06 0.07 0.08 0.08 0.07 0.08 0.07 0.07 0.08 0.12 0.12 0.11 0.09 0.10 0.11 0.13 0.16 0.14 0.14 0.14 0.15 0.19 0.24 0.29 0.29 0.29 0.30 0.30 0.33 0.39 0.47 0.59 0.64 0.67 0.65 0.78 0.79 0.89 1.01 1.08 1.29 1.18
0.05 0.07 0.08 0.07 0.08 0.09 0.09 0.09 0.08 0.10 0.13 0.12 0.12 0.11 0.12 0.13 0.13 0.19 0.20 0.19 0.20 0.17 0.18 0.23 0.30 0.29 0.24 0.21 0.23 0.25 0.30 0.38 0.43 0.49 0.59 0.59 0.67 0.71 0.78 0.80 0.97 1.15 1.11
0.05 0.07 0.09 0.10 0.10 0.10 0.11 0.10 0.11 0.12 0.13 0.13 0.12 0.13 0.14 0.15 0.15 0.16 0.19 0.21 0.22 0.23 0.24 0.25 0.28 0.28 0.29 0.27 0.29 0.31 0.33 0.35 0.33 0.34 0.49 0.56 0.63 0.61 0.60 0.73 0.92 0.97 1.01
0.05 0.05 0.06 0.09 0.13 0.14 0.15 0.16 0.17 0.18 0.17 0.16 0.16 0.15 0.16 0.18 0.18 0.20 0.22 0.24 0.27 0.28 0.28 0.28 0.31 0.33 0.34 0.29 0.28 0.32 0.35 0.33 0.32 0.33 0.47 0.60 0.65 0.63 0.61 0.69 0.81 0.87 0.99
0.09 0.06 0.06 0.07 0.10 0.14 0.16 0.19 0.19 0.20 0.22 0.21 0.21 0.21 0.21 0.21 0.23 0.25 0.27 0.27 0.28 0.30 0.29 0.30 0.33 0.32 0.29 0.28 0.31 0.33 0.36 0.36 0.36 0.45 0.60 0.72 0.74 0.74 0.71 0.74 0.84 0.81 0.79
0.07 0.07 0.08 0.07 0.08 0.09 0.10 0.12 0.14 0.16 0.19 0.23 0.24 0.22 0.25 0.28 0.28 0.27 0.24 0.25 0.27 0.30 0.29 0.28 0.31 0.31 0.29 0.28 0.32 0.37 0.39 0.38 0.47 0.63 0.80 0.90 0.98 0.98 0.91 0.88 0.86 0.79 0.77